Location: ???????
(55.4362°N, 38.1183°E)
Time: 14:45:54
(UTC+00:00)

M-CUBED/EXP-1 PRIME - Pass Details

Date: 12 December 2021
Orbit: 426 x 650 km, 101.7° (Epoch: 28 January)

Event Time Altitude Azimuth Distance (km) Brightness Sun altitude
Rises 04:00:34 0° 29° (NNE) 2,971 ? -13.5°
Reaches altitude 10° 04:03:15 10° 45° (NE) 2,036 ? -13.2°
Maximum altitude 04:06:44 22° 97° (E) 1,352 ? -12.7°
Drops below altitude 10° 04:10:05 10° 149° (SSE) 1,944 ? -12.3°
Sets 04:12:34 0° 165° (SSE) 2,802 ? -11.9°
